User: anonymous   Login
Location: �chenoz-la-M�line
(47.6009°N, 6.1354°E)
Time: 05:08:46
(UTC+00:00)
Language:

Cosmos 1408 - Orbit

View from above orbital plane
View from above orbital plane
View from above satellite
View from above satellite

Ground track
Ground track

The orbit data is extracted from the following two-line orbital elements,

1 13552U 82092A   21101.94713817  .00001122  00000-0  38867-4 0  9994
2 13552  82.5680 340.5076 0018125 153.6339 206.5828 15.28573406109630
Epoch (UTC): 11 April 2021 22:43:52
Eccentricity: 0.0018125
inclination: 82.5680°
perigee height: 467 km
apogee height: 492 km
right ascension of ascending node: 340.5076°
argument of perigee: 153.6339°
revolutions per day: 15.28573406
mean anomaly at epoch: 206.5828°
orbit number at epoch: 10963

The dashed part of the orbit path shows where the satellite is in the earth's shadow,  

DLR